EN

Hourly Weather Tadepalle

Today, 3 December, Thursday

Time Temperature Precipitation Wind Pressure Humidity
00:00 +23°C° 0 mm 1 mps 757 mmHg 74%
01:00 +23°C° 0 mm 1 mps 756 mmHg 75%
02:00 +23°C° 0 mm 1 mps 756 mmHg 76%
03:00 +23°C° 0 mm 1 mps 756 mmHg 77%
04:00 +22°C° 0 mm 1 mps 756 mmHg 78%
05:00 +21°C° 0 mm 2 mps 756 mmHg 81%
06:00 +23°C° 0 mm 2 mps 757 mmHg 78%
07:00 +24°C° 0 mm 2 mps 757 mmHg 75%
08:00 +25°C° 0 mm 3 mps 758 mmHg 72%
09:00 +27°C° 0 mm 3 mps 758 mmHg 68%
10:00 +28°C° 0 mm 3 mps 758 mmHg 64%
11:00 +30°C° 0 mm 3 mps 758 mmHg 58%
12:00 +30°C° 0 mm 3 mps 757 mmHg 58%
13:00 +30°C° 0 mm 3 mps 756 mmHg 58%
14:00 +30°C° 0 mm 3 mps 755 mmHg 58%
15:00 +29°C° 0 mm 3 mps 755 mmHg 62%
16:00 +28°C° 0 mm 2 mps 756 mmHg 67%
17:00 +27°C° 0 mm 2 mps 756 mmHg 69%
18:00 +26°C° 0 mm 2 mps 756 mmHg 70%
19:00 +26°C° 0 mm 2 mps 757 mmHg 71%
20:00 +25°C° 0 mm 2 mps 757 mmHg 72%
21:00 +25°C° 0 mm 2 mps 757 mmHg 75%
22:00 +24°C° 0 mm 2 mps 757 mmHg 78%
23:00 +24°C° 0 mm 2 mps 757 mmHg 81%

Tomorrow, 4 December, Friday

Time Temperature Precipitation Wind Pressure Humidity
00:00 +24°C° 0 mm 2 mps 756 mmHg 83%
01:00 +23°C° 0 mm 2 mps 756 mmHg 84%
02:00 +23°C° 0 mm 2 mps 755 mmHg 86%
03:00 +23°C° 0 mm 2 mps 755 mmHg 86%
04:00 +23°C° 0 mm 2 mps 755 mmHg 86%
05:00 +23°C° 0 mm 1 mps 755 mmHg 87%
06:00 +24°C° 0 mm 2 mps 756 mmHg 82%
07:00 +25°C° 0 mm 2 mps 757 mmHg 78%
08:00 +26°C° 0 mm 3 mps 757 mmHg 73%
09:00 +28°C° 0 mm 3 mps 757 mmHg 69%
10:00 +29°C° 0 mm 3 mps 757 mmHg 65%
11:00 +30°C° 0 mm 4 mps 757 mmHg 60%
12:00 +31°C° 0 mm 3 mps 756 mmHg 59%
13:00 +31°C° 0 mm 3 mps 755 mmHg 58%
14:00 +31°C° 0 mm 3 mps 754 mmHg 57%
15:00 +30°C° 0 mm 3 mps 754 mmHg 62%
16:00 +29°C° 0 mm 2 mps 755 mmHg 67%
17:00 +28°C° 0 mm 2 mps 755 mmHg 72%
18:00 +27°C° 0 mm 2 mps 755 mmHg 75%
19:00 +26°C° 0 mm 2 mps 756 mmHg 79%
20:00 +25°C° 0 mm 2 mps 757 mmHg 82%
21:00 +25°C° 0 mm 2 mps 757 mmHg 84%
22:00 +24°C° 0 mm 2 mps 757 mmHg 86%
23:00 +24°C° 0 mm 2 mps 757 mmHg 88%

Day after tomorrow, 5 December, Saturday

Time Temperature Precipitation Wind Pressure Humidity
00:00 +23°C° 0 mm 2 mps 756 mmHg 90%
01:00 +23°C° 0 mm 2 mps 756 mmHg 92%
02:00 +23°C° 0 mm 2 mps 755 mmHg 94%
03:00 +23°C° 0 mm 2 mps 756 mmHg 94%
04:00 +23°C° 0 mm 2 mps 756 mmHg 94%
05:00 +21°C° 0 mm 2 mps 756 mmHg 93%
06:00 +23°C° 0 mm 2 mps 756 mmHg 87%
07:00 +25°C° 0 mm 2 mps 757 mmHg 80%
08:00 +26°C° 0 mm 2 mps 758 mmHg 74%
09:00 +27°C° 0 mm 3 mps 758 mmHg 68%
10:00 +29°C° 0 mm 3 mps 757 mmHg 62%
11:00 +30°C° 0 mm 3 mps 757 mmHg 56%
12:00 +30°C° 0 mm 3 mps 756 mmHg 55%
13:00 +31°C° 0 mm 3 mps 756 mmHg 54%
14:00 +31°C° 0 mm 3 mps 755 mmHg 52%
15:00 +30°C° 0 mm 3 mps 755 mmHg 57%
16:00 +28°C° 0 mm 3 mps 755 mmHg 61%
17:00 +27°C° 0 mm 2 mps 755 mmHg 66%
18:00 +26°C° 0 mm 2 mps 756 mmHg 66%
19:00 +25°C° 0 mm 2 mps 756 mmHg 67%
20:00 +24°C° 0 mm 2 mps 757 mmHg 67%
21:00 +24°C° 0 mm 2 mps 757 mmHg 70%
22:00 +23°C° 0 mm 2 mps 757 mmHg 74%
23:00 +23°C° 0 mm 2 mps 757 mmHg 77%

6 December, Sunday

Time Temperature Precipitation Wind Pressure Humidity
00:00 +21°C° 0 mm 2 mps 757 mmHg 80%
01:00 +21°C° 0 mm 2 mps 757 mmHg 83%
02:00 +21°C° 0 mm 2 mps 756 mmHg 85%
03:00 +20°C° 0 mm 2 mps 756 mmHg 85%
04:00 +20°C° 0 mm 2 mps 757 mmHg 85%
05:00 +20°C° 0 mm 2 mps 757 mmHg 85%
06:00 +21°C° 0 mm 2 mps 758 mmHg 80%
07:00 +24°C° 0 mm 3 mps 758 mmHg 75%
08:00 +25°C° 0 mm 3 mps 759 mmHg 69%
09:00 +26°C° 0 mm 3 mps 759 mmHg 63%
10:00 +28°C° 0 mm 4 mps 759 mmHg 56%
11:00 +30°C° 0 mm 4 mps 759 mmHg 50%
12:00 +30°C° 0 mm 4 mps 758 mmHg 48%
13:00 +30°C° 0 mm 4 mps 757 mmHg 46%
14:00 +32°C° 0 mm 4 mps 757 mmHg 44%
15:00 +29°C° 0 mm 3 mps 757 mmHg 50%
16:00 +28°C° 0 mm 3 mps 757 mmHg 55%
17:00 +26°C° 0 mm 2 mps 757 mmHg 61%
18:00 +25°C° 0 mm 2 mps 758 mmHg 62%
19:00 +24°C° 0 mm 2 mps 758 mmHg 63%
20:00 +24°C° 0 mm 2 mps 759 mmHg 64%
21:00 +23°C° 0 mm 2 mps 759 mmHg 67%
22:00 +23°C° 0 mm 2 mps 759 mmHg 71%
23:00 +21°C° 0 mm 2 mps 759 mmHg 74%

7 December, Monday

Time Temperature Precipitation Wind Pressure Humidity
00:00 +21°C° 0 mm 2 mps 758 mmHg 77%
01:00 +21°C° 0 mm 2 mps 758 mmHg 80%
02:00 +20°C° 0 mm 2 mps 758 mmHg 82%
03:00 +20°C° 0 mm 2 mps 758 mmHg 82%
04:00 +20°C° 0 mm 2 mps 758 mmHg 82%
05:00 +20°C° 0 mm 2 mps 758 mmHg 81%
06:00 +21°C° 0 mm 2 mps 758 mmHg 77%
07:00 +23°C° 0 mm 2 mps 759 mmHg 73%
08:00 +24°C° 0 mm 3 mps 760 mmHg 68%
09:00 +26°C° 0 mm 3 mps 760 mmHg 62%
10:00 +28°C° 0 mm 3 mps 759 mmHg 56%
11:00 +30°C° 0 mm 3 mps 759 mmHg 50%
12:00 +30°C° 0 mm 3 mps 759 mmHg 47%
13:00 +31°C° 0 mm 3 mps 758 mmHg 44%
14:00 +31°C° 0 mm 3 mps 758 mmHg 42%
15:00 +29°C° 0 mm 3 mps 758 mmHg 47%
16:00 +28°C° 0 mm 2 mps 758 mmHg 52%
17:00 +26°C° 0 mm 2 mps 758 mmHg 58%
18:00 +25°C° 0 mm 2 mps 759 mmHg 62%
19:00 +24°C° 0 mm 1 mps 759 mmHg 67%
20:00 +23°C° 0 mm 1 mps 760 mmHg 71%
21:00 +23°C° 0 mm 1 mps 760 mmHg 73%
22:00 +22°C° 0 mm 1 mps 760 mmHg 74%
23:00 +22°C° 0 mm 1 mps 760 mmHg 75%

8 December, Tuesday

Time Temperature Precipitation Wind Pressure Humidity
00:00 +22°C° 0 mm 1 mps 759 mmHg 77%
01:00 +21°C° 0 mm 1 mps 759 mmHg 78%
02:00 +21°C° 0 mm 1 mps 759 mmHg 80%
03:00 +21°C° 0 mm 1 mps 759 mmHg 82%
04:00 +21°C° 0 mm 1 mps 759 mmHg 85%
05:00 +20°C° 0 mm 1 mps 759 mmHg 87%
06:00 +22°C° 0 mm 1 mps 759 mmHg 83%
07:00 +23°C° 0 mm 1 mps 760 mmHg 79%
08:00 +24°C° 0 mm 2 mps 761 mmHg 75%
09:00 +26°C° 0 mm 2 mps 760 mmHg 66%
10:00 +28°C° 0 mm 2 mps 760 mmHg 58%
11:00 +30°C° 0 mm 3 mps 760 mmHg 49%
12:00 +30°C° 0 mm 2 mps 759 mmHg 46%
13:00 +31°C° 0 mm 2 mps 758 mmHg 43%
14:00 +32°C° 0 mm 2 mps 757 mmHg 40%
15:00 +30°C° 0 mm 2 mps 757 mmHg 46%
16:00 +28°C° 0 mm 1 mps 758 mmHg 52%
17:00 +27°C° 0 mm 1 mps 758 mmHg 57%
18:00 +26°C° 0 mm 1 mps 758 mmHg 63%
19:00 +25°C° 0 mm 1 mps 759 mmHg 69%
20:00 +24°C° 0 mm 1 mps 759 mmHg 74%
21:00 +23°C° 0 mm 1 mps 759 mmHg 77%
22:00 +23°C° 0 mm 1 mps 759 mmHg 80%
23:00 +20°C° 0 mm 0 mps 759 mmHg 83%
Show more